{"data":{"norad_id":64498,"epoch":"2026-09-20T18:57:14.711904Z","epoch_age_seconds":106565,"freshness":"FRESH","line1":"1 64498U 25133AC  26263.78975361  .00022472  00000+0  67320-3 0  9997","line2":"2 64498  53.1598 288.1271 0001327  63.8640 296.2499 15.34449084 71093","mean_motion":15.34449084,"eccentricity":0.0001327,"inclination_deg":53.1598,"raan_deg":288.1271,"arg_perigee_deg":63.864,"mean_anomaly_deg":296.2499,"bstar":0.0006732,"rev_number":7109,"period_min":93.844756076638,"perigee_km":461.64959596297,"apogee_km":463.46511624508,"semimajor_km":6840.694356104,"source":"CELESTRAK","updated_at":"2026-09-21T09:00:35.363300Z"}}